SCP
1 1 1 1 1 1 1 1 1 1 1 1 1 1 1 1 1 1 1 1 1 1 1 1 1 1 0 0 1 1 1 1 1 1 0 0 0 0 0 0 0 0 0
1 1 1 1 1 1 1 1 1 1 1 1 1 1 1 1 1 1 1 1 1 1 1 1 1 1 1 1 1 1 1 1 1 1 0 0 0 0 0 0 0 0 0
2 1 1 2 1 1 1 1 1 1 1 1 1 1 1 1 1 1 1 1 1 1 1 1 1 1 1 1 1 1 1 1 1 1 0 0 0 0 0 0 0 0 0
2 2 2 2 2 2 1 1 1 1 1 1 1 1 1 1 1 1 1 1 1 1 1 1 1 1 1 1 1 1 0 0 0 0 0 0 0 0 0 0 0 0 0
2 2 2 2 2 2 2 1 1 1 1 1 1 1 1 1 1 1 1 1 1 1 1 1 1 1 1 1 1 1 0 0 0 0 0 0 0 1 1 1 1 0 0
2 2 2 2 2 2 2 2 1 1 1 1 1 1 1 1 1 1 1 1 1 1 1 1 1 1 1 1 1 1 1 1 0 0 0 0 0 1 1 1 1 1 1
2 2 2 2 2 2 2 2 1 1 1 1 1 1 1 1 1 1 1 1 1 1 1 1 1 1 1 1 1 1 1 1 0 0 0 0 0 0 1 1 1 1 1
3 3 3 2 2 2 2 2 1 1 1 1 1 1 1 1 1 1 1 1 2 2 1 1 1 1 1 1 1 1 1 1 1 0 0 0 0 0 1 1 1 1 1
4 4 3 3 2 2 2 2 1 1 1 1 1 1 1 1 1 1 1 2 2 2 2 1 1 1 1 1 1 1 1 1 1 0 0 0 0 1 1 1 1 1 1
4 4 3 3 2 2 2 2 2 2 2 2 1 1 1 1 1 1 1 2 2 2 1 1 1 2 2 1 1 1 1 1 1 0 0 1 1 1 1 1 1 1 1
3 3 3 2 2 2 2 2 2 2 2 2 2 1 1 1 1 1 1 1 1 1 1 1 1 2 2 2 1 1 1 1 1 0 1 1 1 1 1 1 1 1 1
2 2 2 2 2 2 2 2 2 2 2 2 2 1 1 1 1 1 1 1 1 1 1 1 1 1 2 1 1 1 1 1 1 1 1 1 1 1 1 1 1 1 1
2 2 2 2 2 2 2 2 2 2 2 2 2 1 1 1 1 1 1 1 1 1 1 1 1 1 1 1 1 1 1 1 1 1 1 1 1 1 1 1 1 1 1
2 2 2 2 2 3 3 2 2 2 1 1 1 1 1 1 1 1 1 1 1 1 1 1 1 1 1 1 1 1 1 1 1 1 1 1 2 2 2 2 1 1 1
2 2 2 2 2 2 2 2 2 1 1 1 1 1 1 1 1 1 1 1 1 2 2 1 1 1 1 1 1 1 1 1 1 1 1 1 2 2 2 2 2 2 1
2 2 2 2 2 2 2 1 1 1 1 1 1 1 1 1 1 1 1 1 1 1 1 1 1 1 1 1 1 1 1 1 1 1 1 1 1 2 2 2 2 2 2
3 3 3 2 2 2 2 1 1 1 1 1 1 1 1 1 1 1 1 1 1 1 1 1 1 1 1 1 1 1 1 1 1 1 1 1 1 1 2 2 2 2 2
2 3 2 2 2 2 2 1 2 2 1 1 1 2 2 1 1 1 1 1 1 1 1 1 1 1 1 1 1 1 1 1 1 1 1 1 1 1 1 1 2 2 2
2 2 2 2 2 2 2 2 2 2 1 1 1 2 2 2 2 2 2 2 2 1 1 1 2 2 1 1 1 1 1 1 1 1 1 1 1 1 1 1 1 2 2
2 2 2 2 2 2 2 2 2 2 1 1 2 2 2 2 2 2 2 2 2 2 2 2 2 2 2 1 1 1 1 1 1 1 1 1 1 1 1 1 1 1 1
3 3 2 3 2 2 2 2 2 2 1 1 2 2 2 1 1 1 2 2 2 2 2 2 2 2 2 1 1 1 0 0 1 1 1 1 1 1 1 1 1 1 1
3 3 3 3 3 2 2 3 2 2 2 2 2 2 2 2 1 1 2 2 2 2 1 1 1 1 1 1 1 1 0 0 0 0 1 1 1 1 1 1 1 1 1
3 2 2 2 2 2 3 3 3 3 2 2 2 2 2 2 2 2 2 2 2 2 1 1 1 1 1 1 1 1 0 0 0 0 1 1 1 1 1 1 1 1 1
3 2 2 2 2 2 3 3 3 3 2 2 2 2 2 2 2 2 2 2 2 2 1 1 1 1 1 0 0 0 0 0 0 0 1 1 1 1 1 1 1 1 0
4 4 3 2 2 3 3 3 3 3 2 2 2 1 1 1 2 2 2 2 2 2 1 1 1 1 0 0 0 0 0 0 0 0 0 0 1 1 1 1 1 1 1
5 5 4 2 2 3 4 4 3 3 2 2 2 2 1 1 2 2 2 2 2 2 2 1 1 1 0 0 0 0 0 0 0 0 0 0 1 1 1 1 1 1 1
Wind_Speed
7 9 15 16 16 16 16 17 16 17 17 17 17 17 17 16 16 16 15 14 13 13 12 12 11 11 11 12 14 14 15 15 16 16 16 16 15 16 16 16 15 11 16
12 11 16 16 17 16 16 16 16 16 16 16 16 16 15 15 15 14 13 13 12 12 11 11 10 10 11 12 13 13 14 14 14 15 15 14 15 14 15 15 14 10 15
14 11 14 16 17 17 17 16 16 16 15 15 15 15 14 14 13 13 12 11 11 10 10 10 10 10 10 11 11 12 12 12 12 14 13 7 9 14 15 15 15 15 14
14 10 11 16 16 16 16 16 15 15 15 15 14 14 14 13 12 11 12 11 10 9 9 9 9 8 8 9 9 10 10 10 10 11 6 5 6 14 15 15 14 14 14
11 9 12 17 16 16 16 15 15 15 14 14 14 13 12 12 11 10 10 10 9 9 8 8 8 7 7 7 7 7 7 7 7 6 4 4 5 12 14 14 14 13 13
11 8 11 16 15 15 15 14 14 14 14 13 13 12 11 10 9 9 9 9 9 8 8 8 7 6 6 5 5 4 4 4 4 3 4 5 5 11 14 14 13 13 12
10 7 10 14 15 14 14 14 14 13 13 12 11 11 10 9 9 8 8 8 8 8 7 7 6 5 5 4 4 3 2 1 3 3 3 4 5 11 13 13 13 13 12
11 8 8 13 14 13 13 13 12 12 11 11 10 10 9 9 8 8 7 7 7 7 7 6 6 5 4 3 3 2 1 1 2 4 4 4 8 11 12 13 13 12 12
10 8 6 7 9 12 12 11 11 10 10 10 9 9 8 8 8 8 7 7 7 7 7 6 6 5 4 3 2 2 1 0 2 2 5 4 9 12 12 13 13 12 12
8 7 6 5 6 6 6 10 11 10 9 9 9 9 9 8 8 8 7 7 7 7 7 6 6 5 5 4 3 3 2 0 1 2 2 5 12 13 13 13 13 12 12
8 6 5 5 5 5 5 7 8 8 8 7 6 7 6 3 3 4 6 7 7 7 7 6 6 6 5 4 4 4 2 1 1 2 3 8 13 14 13 13 13 13 12
6 4 4 5 5 4 4 4 3 3 3 3 3 3 2 2 2 3 4 8 8 7 6 7 7 6 4 2 3 4 1 1 1 2 4 10 13 14 14 13 14 14 13
5 4 3 4 4 4 3 3 2 2 2 2 2 2 2 1 1 1 1 2 3 4 2 3 3 2 2 2 2 2 2 2 1 2 4 9 12 13 14 13 13 14 14
5 3 3 3 3 3 4 2 2 2 1 1 2 2 2 1 1 1 1 1 2 1 2 2 1 2 3 3 3 2 2 2 2 2 3 9 11 12 13 14 14 13 13
4 3 3 3 3 3 3 2 2 2 2 2 1 1 2 2 1 1 1 2 3 2 2 2 2 2 2 2 3 3 3 4 3 3 3 9 11 12 13 14 14 14 13
3 3 3 4 3 3 2 2 2 2 1 1 1 1 1 1 1 1 1 2 2 2 3 3 3 3 2 2 2 2 2 2 3 4 3 6 10 11 11 13 14 14 14
4 4 4 4 3 3 3 2 2 2 2 1 1 1 1 1 1 1 1 1 2 2 2 2 3 2 2 2 2 2 2 2 2 3 4 3 4 9 11 11 12 12 13
5 4 4 4 4 3 3 2 1 2 2 1 1 1 1 1 1 1 1 1 1 1 1 2 2 2 2 2 2 2 2 2 3 3 3 3 3 4 7 10 11 12 13
5 3 4 4 3 3 3 2 2 2 2 1 1 1 2 2 1 0 0 1 1 0 1 2 2 2 2 2 2 2 1 1 2 3 3 4 4 4 4 7 11 13 13
6 6 6 5 4 2 2 2 2 3 2 2 2 2 3 2 2 1 1 1 1 0 1 1 1 1 1 2 2 1 0 1 1 2 3 3 3 4 4 4 5 7 11
7 7 6 5 4 2 1 1 2 2 2 2 2 3 3 3 2 2 2 1 1 0 1 1 0 1 1 1 1 0 1 0 1 1 1 2 2 3 3 3 2 2 3
6 6 6 5 5 4 2 1 1 1 2 2 3 4 4 3 3 2 2 1 1 1 1 1 0 0 1 1 1 1 1 1 1 0 0 1 1 1 2 3 3 3 3
6 6 5 5 5 4 4 3 3 3 2 3 4 3 4 4 3 3 3 2 2 1 1 1 1 1 1 1 1 2 2 2 0 1 1 1 1 1 1 1 2 3 3
6 5 5 5 5 5 5 4 4 3 2 2 2 2 4 5 4 4 3 3 3 2 2 2 1 1 1 1 1 1 1 2 2 1 1 1 2 2 2 1 1 2 2
6 5 4 5 5 5 5 5 5 4 3 2 3 4 4 4 5 5 4 4 3 2 2 2 2 1 1 2 1 1 1 1 2 2 2 1 2 2 3 2 2 2 3
6 5 5 5 5 5 6 6 5 5 5 4 4 3 3 3 3 5 4 4 3 3 3 3 2 2 1 1 1 1 1 2 2 3 3 2 2 2 3 3 2 2 2
Wind_Direction
146 150 141 133 128 122 118 113 110 107 106 105 103 102 102 104 105 108 110 112 113 112 111 110 109 107 107 108 109 111 113 114 115 115 115 115 116 115 114 111 108 106 109
146 149 141 136 131 127 122 119 115 112 111 109 107 106 106 106 106 107 107 109 110 111 111 112 111 110 110 111 112 115 118 119 119 117 114 113 113 115 117 114 112 114 114
138 141 140 137 134 131 127 124 121 119 117 115 113 112 110 109 109 109 109 109 111 113 114 113 113 113 112 114 115 118 121 122 120 116 110 102 108 112 118 118 117 116 115
134 135 138 137 135 133 131 129 128 126 124 122 120 119 118 116 114 114 115 114 114 116 118 117 117 118 117 117 119 122 127 129 126 121 113 113 113 117 120 122 121 120 119
127 129 139 137 135 135 135 134 133 132 130 129 128 127 125 124 122 122 122 122 122 123 125 125 125 126 125 123 124 127 130 135 136 121 113 117 116 127 127 127 126 125 124
122 126 137 136 135 136 138 138 138 137 137 136 135 134 133 132 132 132 133 133 133 133 133 132 133 133 133 132 134 132 133 141 128 108 121 133 135 138 136 134 132 130 129
121 123 134 135 136 137 139 141 141 142 143 142 142 141 140 141 141 141 143 143 144 145 143 141 143 146 149 150 154 149 144 176 144 141 149 152 153 149 144 140 138 136 135
121 118 126 132 133 134 137 139 141 144 145 145 147 148 148 148 150 151 152 152 153 153 153 153 158 163 166 171 175 169 175 273 113 145 155 160 161 158 153 149 146 144 141
110 109 109 123 129 132 132 135 138 142 145 147 150 154 156 157 162 164 162 162 163 163 166 167 171 178 183 190 200 212 226 131 85 131 161 165 167 166 163 157 154 152 150
99 103 101 108 115 121 131 137 139 143 147 149 154 159 163 167 172 176 173 175 178 180 182 182 185 192 200 212 227 240 255 354 108 157 159 177 174 172 168 164 162 160 158
101 101 105 107 112 122 131 140 141 146 147 149 155 162 159 159 172 184 188 187 191 194 197 198 200 203 211 227 238 242 258 128 145 174 176 185 179 176 174 171 168 167 166
113 110 108 110 118 120 134 123 128 137 134 134 141 146 138 146 186 193 200 201 199 203 210 211 212 212 213 228 251 251 221 195 182 188 192 190 184 180 179 177 174 172 173
102 114 121 115 118 118 110 122 125 125 129 130 131 144 150 144 180 204 198 218 215 212 225 233 227 218 212 219 234 231 213 200 206 206 203 191 186 185 183 182 181 179 179
96 107 116 113 110 107 111 125 137 123 134 156 170 172 154 147 180 188 190 207 206 208 218 227 222 222 228 236 233 229 214 196 197 200 199 189 185 185 190 187 186 184 184
87 88 84 85 83 91 104 133 127 131 156 182 187 177 147 156 179 174 187 211 213 207 207 210 215 223 233 237 237 232 219 200 196 205 207 202 197 197 197 193 192 190 189
102 68 75 80 92 109 117 128 124 122 120 136 172 109 109 143 170 154 211 225 230 222 206 209 212 214 224 222 237 233 223 210 203 206 207 202 200 200 202 200 198 194 193
92 80 85 93 86 101 108 110 109 108 97 99 103 93 99 107 142 149 214 230 240 230 208 204 208 196 219 228 232 236 213 202 197 208 203 194 198 204 205 204 200 196 196
67 55 59 69 76 83 103 110 95 99 101 72 76 72 70 72 80 124 217 235 247 229 209 209 204 205 218 218 231 236 206 190 198 202 202 195 194 200 205 205 204 200 200
87 63 50 56 68 97 106 98 91 80 82 76 61 50 38 50 62 61 281 287 267 236 238 232 193 190 207 220 227 232 221 187 203 201 199 197 197 200 199 207 210 207 204
75 59 49 52 46 58 77 79 76 64 56 54 42 41 45 38 41 32 13 353 1 2 287 273 214 192 203 217 228 238 244 241 207 200 203 198 198 202 200 199 204 208 200
67 62 43 39 26 34 49 59 69 64 56 52 47 43 42 36 32 41 19 7 16 13 291 299 252 196 224 185 124 357 336 16 182 213 205 184 199 199 189 182 181 174 186
65 61 45 41 38 31 30 30 67 79 70 67 46 32 25 21 20 41 40 17 7 1 0 354 344 220 232 177 155 153 270 320 351 68 93 175 199 184 171 172 168 158 158
68 56 57 39 36 31 27 44 56 49 42 43 40 27 14 19 23 28 37 29 12 14 345 327 332 243 238 235 184 165 176 210 251 39 34 45 47 82 123 150 147 143 141
79 67 57 45 40 32 36 55 67 72 63 40 37 31 17 21 23 26 28 25 16 12 352 326 348 290 248 245 254 233 200 165 164 162 63 47 50 56 54 74 106 109 115
82 71 58 52 47 38 40 46 58 56 52 46 44 38 25 15 18 22 24 22 14 4 352 333 333 321 278 238 222 214 209 192 170 160 165 122 59 38 40 47 62 82 89
75 62 52 53 47 41 45 45 53 57 55 55 45 34 20 12 9 12 19 16 9 2 356 345 342 332 314 289 260 216 193 186 179 163 156 145 110 53 41 46 61 73 83